Regional Weather Roundup
Issued by NWS Burlington, VT

Home | Current Version | Previous Version | Text Only | Print | Product List | Glossary On
Versions: 1 2 3 4 5 6 7 8 9 10 11 12 13 14 15 16 17 18 19 20 21 22 23 24 25 26 27 28 29 30 31 32 33 34 35 36 37 38 39 40 41 42 43 44 45 46 47 48 49 50
000
ASUS41 KBTV 211230
RWRBTV
VERMONT REGIONAL WEATHER ROUNDUP
NATIONAL WEATHER SERVICE BURLINGTON VT
800 AM EDT MON APR 21 2014

NOTE: "FAIR" INDICATES FEW OR NO CLOUDS BELOW 12,000 FEET WITH NO
SIGNIFICANT WEATHER AND/OR OBSTRUCTIONS TO VISIBILITY.

* THESE REPORTS ARE NOT UNDER NWS QUALITY CONTROL AND/OR DO NOT
  REPORT WEATHER SUCH AS PRECIPITATION AND FOG.

VTZ001>019-211300-
_____VERMONT_____


CITY           SKY/WX    TMP DP  RH WIND       PRES   REMARKS
BURLINGTON     CLOUDY    50  26  39 S15G25    30.10S
6HR MIN TEMP:  50; 6HR MAX TEMP:  54;

MONTPELIER     CLOUDY    43  27  53 CALM      30.13F
6HR MIN TEMP:  37; 6HR MAX TEMP:  45;

MORRISVILLE    CLOUDY    43  28  55 CALM      30.10F
6HR MIN TEMP:  37; 6HR MAX TEMP:  43;

ST. JOHNSBURY*   N/A     44  26  49 MISG      30.10F
6HR MIN TEMP:  37; 6HR MAX TEMP:  44;

LYNDONVILLE*   CLOUDY    43  23  44 SE7       30.11F
6HR MIN TEMP:  42; 6HR MAX TEMP:  44;

MIDDLEBURY*    CLOUDY    51  24  36 SE9       30.13S
6HR MIN TEMP:  49; 6HR MAX TEMP:  51;

RUTLAND*       PTSUNNY   39  27  60 SE7       30.15F
6HR MIN TEMP:  34; 6HR MAX TEMP:  39;

SPRINGFIELD    MOSUNNY   38  30  73 CALM      30.18F
6HR MIN TEMP:  30; 6HR MAX TEMP:  38;

HIGHGATE*      CLOUDY    54  28  37 S10G17    30.05F
6HR MIN TEMP:  53; 6HR MAX TEMP:  56;

NEWPORT*       PTSUNNY   47  22  37 S8        30.08F
6HR MIN TEMP:  45; 6HR MAX TEMP:  47;

BENNINGTON     MOSUNNY   42  29  59 CALM      30.18S
6HR MIN TEMP:  32; 6HR MAX TEMP:  44;

MT. MANSFIELD*   N/A     41 N/A N/A W15         N/A

_____LAKE CHAMPLAIN_____


CITY           SKY/WX    TMP DP  RH WIND       PRES   REMARKS
BURTON ISLAND*   N/A     45  32  61 S16         N/A
COLCHESTER RF*   N/A     43  32  65 SW28        N/A
DIAMOND ISL*     N/A     46  30  53 S18         N/A

$$

NYZ007-026>031-035-052-083-211300-
_____NORTHERN NEW YORK_____


CITY           SKY/WX    TMP DP  RH WIND       PRES   REMARKS
PLATTSBURGH    LGT RAIN  46  31  55 SE7       30.07S
6HR MIN TEMP:  44; 6HR MAX TEMP:  47; 6HR PCP: TRACE;

SARANAC LAKE   CLOUDY    48  27  44 SW9       30.06F
6HR MIN TEMP:  36; 6HR MAX TEMP:  48;

MASSENA        CLOUDY    55  34  45 SW10      30.04F
6HR MIN TEMP:  43; 6HR MAX TEMP:  55;

OGDENSBURG*    SUNNY     55  36  47 SW9       30.04S
POTSDAM*       PTSUNNY   55  36  47 SW12G18   30.04S
WATERTOWN      PTSUNNY   55  31  39 S7        30.06F
6HR MIN TEMP:  45; 6HR MAX TEMP:  58;

FT DRUM        PTSUNNY   51  34  52 S9        30.06F
6HR MIN TEMP:  49; 6HR MAX TEMP:  52;

ALBANY         PTSUNNY   45  27  49 S13       30.19F
6HR MIN TEMP:  38; 6HR MAX TEMP:  46;

GLENS FALLS    MOSUNNY   48  29  47 S9        30.17F
6HR MIN TEMP:  41; 6HR MAX TEMP:  50;


$$
NHZ002-005-011-211300-
_____NEW HAMPSHIRE_____


CITY           SKY/WX    TMP DP  RH WIND       PRES   REMARKS
LEBANON        CLOUDY    44  26  49 S7        30.15F
6HR MIN TEMP:  33; 6HR MAX TEMP:  44;

KEENE          SUNNY     39  25  56 SW5       30.20F
6HR MIN TEMP:  30; 6HR MAX TEMP:  37;

MT WASHINGTON  PTSUNNY   34  14  44 W30         N/A
6HR MIN TEMP:  30; 6HR MAX TEMP:  34;

PLYMOUTH         N/A     39  29  66 CALM      30.15F
6HR MIN TEMP:  30; 6HR MAX TEMP:  35;

WHITEFIELD     CLOUDY    39  28  64 CALM      30.11F
6HR MIN TEMP:  30; 6HR MAX TEMP:  39;


$$

_____REGIONAL QUEBEC LOCATIONS_____


CITY           SKY/WX    TMP DP  RH WIND       PRES   REMARKS
MONTREAL       CLOUDY    48  32  53 SE2       30.04S
QUEBEC CITY    CLOUDY    41  28  60 W2        30.00F
SHERBROOKE     LGT RAIN  45  34  65 CALM      30.05F

_____REGIONAL ONTARIO LOCATIONS_____


CITY           SKY/WX    TMP DP  RH WIND       PRES   REMARKS
OTTAWA         PTSUNNY   52  36  54 S7        30.02F

______KEY______
VSB  - VISIBILITY IN MILES
WCI  - WIND CHILL INDEX
HX   - HEAT INDEX
$$



USA.gov is the U.S. government's official web portal to all federal, state and local government web resources and services.